Simultaneous Nadir Overpasses (SNOs) Predictions

Prediction of SNOs between TERRA and METOP-C Satellite Orbit:

Table of predicted SNOs for the next 14.0 days since TLE Epoch: 8/1/2020
Index Date (TERRA) Time (TERRA) Lat,Lon (TERRA) SZA (TERRA ) Date (METOP-C) Time (METOP-C) Lat,Lon (METOP-C) SZA (METOP-C ) Distance(km) Time Diff (sec)
1 08/01/2020 12:14:28 81.31, 43.82 66.22 08/01/2020 12:13:57 81.31, 43.63 66.19 3.15 31
2 08/01/2020 13:03:54 -81.32,-148.28 113.74 08/01/2020 13:04:35 -81.32,-148.20 113.71 1.31 41
3 08/04/2020 07:48:43 81.31, 110.36 66.98 08/04/2020 07:48:17 81.31, 110.50 66.98 2.22 26
4 08/04/2020 08:38:10 -81.31, -82.09 113.03 08/04/2020 08:38:57 -81.31, -82.12 113.01 0.94 47
5 08/07/2020 03:22:57 81.32, 176.90 67.77 08/07/2020 03:22:37 81.31, 176.95 67.76 0.97 20
6 08/07/2020 04:12:24 -81.31, -15.53 112.23 08/07/2020 04:13:17 -81.31, -15.65 112.22 2.17 53
7 08/09/2020 22:57:12 81.32,-116.57 68.60 08/09/2020 22:56:58 81.31,-116.60 68.58 1.00 14
8 08/09/2020 23:46:39 -81.32, 51.03 111.40 08/09/2020 23:47:37 -81.32, 51.19 111.36 2.81 58
9 08/12/2020 18:31:28 81.31, -50.43 69.40 08/12/2020 18:31:20 81.31, -50.57 69.39 2.26 8



Historial Predications of SNOs between TERRA and METOP-C
